Fort Wayne, IN

8:22 PM EST on November 19, 2019 (GMT -0500)
Fort Wayne International

Weather History for KFWA - September, 2019

Change the Weather History Date:

Friday, September 27, 2019

  Actual Average Record
Temperature  
Mean Temperature 64 °F 60 °F  
Max Temperature 81 °F 71 °F 89 °F (1973)
Min Temperature 47 °F 48 °F 32 °F (1991)
Degree Days  
Heating Degree Days 1 7  
Month to date heating degree days 17 82  
Since 1 July heating degree days 18 94  
Cooling Degree Days 0 1  
Month to date cooling degree days 115 78  
Year to date cooling degree days 953 795  
Growing Degree Days 14 (Base 50)    
Moisture  
Dew Point 55 °F    
Average Humidity 71    
Maximum Humidity 100    
Minimum Humidity 42    
Precipitation  
Precipitation 1.05 in 0.09 in 1.48 in (1996)
Month to date precipitation 2.24 2.53  
Year to date precipitation 30.51 29.37  
Sea Level Pressure  
Sea Level Pressure 29.91 in    
Wind  
Wind Speed 8 mph (South)    
Max Wind Speed 23 mph    
Max Gust Speed 34 mph    
Visibility 9 miles    
Events Rain , Thunderstorm    
T = Trace of Precipitation, MM = Missing Value Source: NWS Daily Summary

Daily Weather History Graph

Daily Weather History Graph

Search for Another Location

Airport or City:

Astronomy

Sep. 27, 2019 Rise Set
Actual Time 7:33 AM EDT 7:29 PM EDT
Civil Twilight 7:05 AM EDT 7:57 PM EDT
Nautical Twilight 6:33 AM EDT 8:29 PM EDT
Astronomical Twilight 6:01 AM EDT 9:01 PM EDT
Moon 5:52 AM EDT (9/27) 7:20 PM EDT (9/27)
Length of Visible Light 12h 51m
Length of Day
11h 56m
Waning Crescent, 2% of the Moon is Illuminated
Sep 27
Waning Crescent
Sep 28
New
Oct 5
First Quarter
Oct 13
Full
Oct 21
Last Quarter

Hourly Weather History & Observations

Time (EDT) Temp. Heat Index Dew Point Humidity Pressure Visibility Wind Dir Wind Speed Gust Speed Precip Events Conditions
12:54 AM 48.9 °F - 45.0 °F 86% 29.99 in 10.0 mi Calm Calm - N/A   Partly Cloudy
1:54 AM 48.0 °F - 44.1 °F 86% 29.98 in 10.0 mi Calm Calm - N/A   Clear
2:54 AM 46.9 °F - 43.0 °F 86% 29.98 in 10.0 mi Calm Calm - N/A   Clear
3:54 AM 50.0 °F - 45.0 °F 83% 29.97 in 10.0 mi Calm Calm - N/A   Mostly Cloudy
4:54 AM 48.9 °F - 44.1 °F 83% 29.97 in 10.0 mi SE 4.6 mph - N/A   Partly Cloudy
5:54 AM 51.1 °F - 45.0 °F 80% 29.98 in 10.0 mi SSE 3.5 mph - N/A   Mostly Cloudy
6:54 AM 52.0 °F - 46.0 °F 80% 29.97 in 10.0 mi SSE 6.9 mph - N/A   Mostly Cloudy
7:54 AM 54.0 °F - 46.0 °F 75% 29.97 in 10.0 mi SSE 5.8 mph - N/A   Mostly Cloudy
8:54 AM 57.9 °F - 46.9 °F 67% 29.97 in 10.0 mi SSE 8.1 mph - N/A   Mostly Cloudy
9:54 AM 63.0 °F - 46.9 °F 56% 29.95 in 10.0 mi South 12.7 mph - N/A   Mostly Cloudy
10:54 AM 70.0 °F - 48.0 °F 46% 29.92 in 10.0 mi South 15.0 mph 21.9 mph N/A   Scattered Clouds
11:54 AM 73.9 °F - 50.0 °F 43% 29.91 in 10.0 mi South 15.0 mph - N/A   Mostly Cloudy
12:54 PM 79.0 °F - 54.0 °F 42% 29.87 in 10.0 mi SSW 16.1 mph 28.8 mph N/A   Mostly Cloudy
1:54 PM 81.0 °F 80.8 °F 55.9 °F 42% 29.86 in 10.0 mi South 18.4 mph 27.6 mph N/A   Overcast
2:54 PM 80.1 °F 80.7 °F 59.0 °F 48% 29.83 in 10.0 mi SSW 13.8 mph - N/A   Overcast
3:27 PM 80.1 °F 80.9 °F 60.1 °F 50% 29.86 in 10.0 mi West 6.9 mph - N/A Thunderstorm Thunderstorm
3:54 PM 78.1 °F - 61.0 °F 56% 29.86 in 10.0 mi WNW 5.8 mph - N/A Thunderstorm Thunderstorm
4:54 PM 66.9 °F - 64.0 °F 90% 29.90 in 10.0 mi North 5.8 mph - 0.10 in Rain , Thunderstorm Light Thunderstorms and Rain
5:43 PM 66.0 °F - 64.9 °F 96% 29.95 in 1.8 mi West 10.4 mph 17.3 mph 0.03 in Rain , Thunderstorm Heavy Thunderstorms and Rain
5:54 PM 66.0 °F - 64.9 °F 96% 29.96 in 1.0 mi West 6.9 mph 21.9 mph 0.42 in Rain , Thunderstorm Heavy Thunderstorms and Rain
6:15 PM 64.9 °F - 64.9 °F 100% 29.90 in 3.0 mi SE 5.8 mph - 0.28 in Rain , Thunderstorm Thunderstorms and Rain
6:54 PM 64.9 °F - 64.0 °F 97% 29.94 in 5.0 mi South 6.9 mph - 0.36 in Rain , Thunderstorm Thunderstorms and Rain
7:09 PM 64.9 °F - 64.0 °F 97% 29.88 in 1.5 mi ENE 10.4 mph - 0.16 in Rain , Thunderstorm Heavy Thunderstorms and Rain
7:19 PM 64.9 °F - 64.0 °F 97% 29.89 in 10.0 mi NNE 4.6 mph - 0.17 in Rain , Thunderstorm Light Thunderstorms and Rain
7:54 PM 64.9 °F - 63.0 °F 93% 29.85 in 10.0 mi SSE 5.8 mph - 0.17 in   Mostly Cloudy
8:54 PM 64.0 °F - 63.0 °F 96% 29.84 in 10.0 mi SSE 10.4 mph - N/A   Mostly Cloudy
9:54 PM 64.0 °F - 62.1 °F 93% 29.84 in 10.0 mi NE 6.9 mph - N/A   Mostly Cloudy
10:54 PM 64.0 °F - 63.0 °F 96% 29.83 in 10.0 mi ESE 5.8 mph - N/A   Overcast
11:54 PM 64.0 °F - 62.1 °F 93% 29.84 in 10.0 mi South 6.9 mph - N/A   Overcast